Royersford, PA

7:59 AM EST on December 10, 2016 (GMT -0500)
Pottstown Limerick

Weather History for KPTW - October, 2012

Change the Weather History Date:

Sunday, October 7, 2012

  Actual Average (KRDG) Record (KRDG)
Temperature  
Mean Temperature 47 °F -  
Max Temperature 52 °F 65 °F 86 °F (1946)
Min Temperature 42 °F 44 °F 31 °F (1904)
Degree Days  
Heating Degree Days 18    
Moisture  
Dew Point 43 °F    
Average Humidity 84    
Maximum Humidity 100    
Minimum Humidity 61    
Precipitation  
Precipitation 0.10 in - - ()
Sea Level Pressure  
Sea Level Pressure 30.10 in    
Wind  
Wind Speed 2 mph (West)    
Max Wind Speed 8 mph    
Max Gust Speed -    
Visibility 9 miles    
Events Fog , Rain    
Averages and records for this station are not official NWS values.
T = Trace of Precipitation, MM = Missing Value Source: NWS Daily Summary

Daily Weather History Graph

Daily Weather History Graph

Search for Another Location

Airport or City:

Trip Planner

Search our weather history database for the weather conditions in past years. The results will help you decide how hot, cold, wet, or windy it might be!

Date:

Astronomy

Oct. 07, 2012 Rise Set
Actual Time 7:05 AM EDT 6:34 PM EDT
Civil Twilight 6:37 AM EDT 7:01 PM EDT
Nautical Twilight 6:06 AM EDT 7:32 PM EDT
Astronomical Twilight 5:34 AM EDT 8:04 PM EDT
Moon 11:43 PM EDT (10/7) 1:41 PM EDT (10/7)
Length of Visible Light 12h 23m
Length of Day
11h 28m
Waning Gibbous, 56% of the Moon is Illuminated
Oct 7
Waning Gibbous
Oct 8
Last Quarter
Oct 15
New
Oct 21
First Quarter
Oct 29
Full

Hourly Weather History & Observations

Time (EDT) Temp. Dew Point Humidity Pressure Visibility Wind Dir Wind Speed Gust Speed Precip Events Conditions
12:54 AM 52.0 °F 39.0 °F 61% 30.04 in 10.0 mi NNW 8.1 mph - N/A   Clear
1:54 AM 48.9 °F 37.9 °F 66% 30.05 in 10.0 mi Calm Calm - N/A   Clear
3:54 AM 43.0 °F 39.0 °F 86% 30.04 in 10.0 mi Calm Calm - N/A   Clear
4:54 AM 42.1 °F 39.0 °F 89% 30.08 in 10.0 mi Calm Calm - N/A   Clear
5:54 AM 43.0 °F 39.9 °F 89% 30.08 in 10.0 mi Calm Calm - N/A   Clear
6:54 AM 45.0 °F 42.1 °F 90% 30.10 in 10.0 mi Calm Calm - N/A   Overcast
7:54 AM 46.9 °F 43.0 °F 86% 30.10 in 10.0 mi Calm Calm - N/A   Overcast
8:54 AM 48.9 °F 43.0 °F 80% 30.12 in 10.0 mi Calm Calm - N/A   Overcast
9:54 AM 50.0 °F 44.1 °F 80% 30.13 in 10.0 mi Calm Calm - N/A   Overcast
10:54 AM 50.0 °F 45.0 °F 83% 30.14 in 9.0 mi WSW 3.5 mph - 0.00 in Rain Light Rain
11:54 AM 48.9 °F 45.0 °F 86% 30.12 in 10.0 mi Calm Calm - 0.04 in Rain Light Rain
12:54 PM 50.0 °F 45.0 °F 83% 30.10 in 10.0 mi Calm Calm - 0.00 in   Overcast
1:54 PM 52.0 °F 42.1 °F 69% 30.09 in 10.0 mi Variable 3.5 mph - N/A   Overcast
2:54 PM 51.1 °F 41.0 °F 68% 30.07 in 10.0 mi South 3.5 mph - 0.00 in   Overcast
3:54 PM 51.1 °F 41.0 °F 68% 30.04 in 10.0 mi Calm Calm - N/A   Overcast
4:54 PM 51.1 °F 42.1 °F 71% 30.02 in 10.0 mi Calm Calm - N/A   Overcast
5:54 PM 50.0 °F 44.1 °F 80% 30.06 in 10.0 mi Calm Calm - 0.00 in Rain Light Rain
6:54 PM 50.0 °F 46.9 °F 89% 30.08 in 9.0 mi Calm Calm - 0.02 in Rain Light Rain
7:54 PM 48.9 °F 46.9 °F 93% 30.11 in 10.0 mi West 3.5 mph - 0.02 in Rain Light Rain
8:54 PM 48.9 °F 46.9 °F 93% 30.13 in 10.0 mi West 3.5 mph - 0.02 in Rain Light Rain
9:54 PM 48.0 °F 46.0 °F 93% 30.13 in 10.0 mi Calm Calm - 0.00 in   Mostly Cloudy
10:54 PM 48.0 °F 46.0 °F 93% 30.14 in 6.0 mi Calm Calm - N/A   Mostly Cloudy
11:10 PM 46.4 °F 44.6 °F 93% 30.14 in 1.8 mi Calm Calm - N/A   Partly Cloudy
11:20 PM 44.6 °F 44.6 °F 100% 30.14 in 0.5 mi Calm Calm - N/A Fog Fog
11:54 PM 44.1 °F 44.1 °F 100% 30.14 in 0.5 mi Calm Calm - N/A Fog Fog